SL-16 DEB, 28436

Orbit data source: Space-Track

SL-16 DEB, 28436 is space debris in SSO originally from a launch on Mon, 10 Dec 2001 UTC launched from the Tyuratam Missile And Space Complex (TTMTR). Debris objects in space refer to the collection of defunct objects orbiting the Earth. Examples of debris include non-operational satellites, rocket bodies, and fragments generated from explosions, collisions, or faulty payload assembly.

Loading next visibility...
Identifier
28436, 2001-056K
Orbit
SSO
Country
Flag of CISCIS
Related business
Manufacturer
Yuzhnoe
Mission
Spacecraft
Bus & Motor
SEP MOTOR COVER, Unknown motor
Mass
~1 kg wet, ~1 kg dry
Launch date (UTC)
2001-12-10 (24 years ago)
Launch vehicle
Unknown
Launch site
Tyuratam Missile And Space Complex (TTMTR)
Object type
Payload
Rocket body
Debris
Shape & HBR
Cone, 0.5 m
Radar Cross Section
0.635 m², Small (<0.1 m²)

Expand to show TLE details & history
Last TLE update: 1 day ago

TLE from 1 day ago
0 SL-16 DEB
1 28436U 01056K   25259.85749985  .00000004  00000-0  81235-4 0  9990
2 28436  99.4350 217.9608 0193224  85.2618 330.6473 13.29031298152360
Epoch: 2025-09-16T20:34Z
TLE epoch observation values (Epoch: 2025-09-16T20:34:47.987Z)
Latitude
53.81496°
Longitude
-99.84253°
Altitude
1,033.033 km
Speed
7.402 km/s
True Right ascension
13h 39m 35s
True Declination
53° 39' 25"
Sunlit
Object was in daylight at epoch
Visualization orbit readout
Latitude
Unknown
Longitude
Unknown
Altitude
Unknown
Speed
Unknown
Apparent Right ascension
Unknown
Apparent Declination
Unknown
Sunlit
N/A
Visualization observer readout
Local Sidereal Time
18:27:34
Azimuth
Unknown
Elevation
Unknown
Doppler factor
Unknown
Orbital elements
Apogee altitude
1,293.152 km
Perigee altitude
1,002.316 km
Semi-major axis
7,525.871 km
Eccentricity
0.01932
Inclination
99.435°
RAAN
217.9608°
Arg. of periapsis
85.2618°
True anomaly
329.53869°
Mean anomaly
330.6473°
Eccentric anomaly
330.09535°
Mean motion
3.32436 °/min
Orbital period
108.29 mins
BSTAR
0.000081235
Loading maneuver chart data...
Computing Atmospheric mass density...
Loading historical data...
Loading historical data...
Loading historical data...
Loading historical data...
Loading historical data...
Loading historical data...
Loading historical data...

Documentation

Showing up to 5 results
|